| time (UTC) | temp C | wind direction | speed KPH | gust KPH | rain 1hr cm | rain 24hr cm | rain mn cm | humidity % | barometer mb |
| 20260504214531 | 22 | 301 | 4.8 | 8.0 | 0.00 | 0.00 | 0.00 | 32 | 1010.6 |
| 20260504213042 | 22 | 348 | 4.8 | 9.7 | 0.00 | 0.00 | 0.00 | 32 | 1010.6 |
| 20260504211533 | 23 | 181 | 3.2 | 11.3 | 0.00 | 0.00 | 0.00 | 31 | 1010.8 |
| 20260504210027 | 23 | 227 | 3.2 | 17.7 | 0.00 | 0.00 | 0.00 | 32 | 1010.7 |
| 20260504204529 | 23 | 227 | 1.6 | 11.3 | 0.00 | 0.00 | 0.00 | 32 | 1010.7 |
| 20260504203035 | 23 | 191 | 3.2 | 17.7 | 0.00 | 0.00 | 0.00 | 32 | 1010.6 |
| 20260504201525 | 23 | 165 | 3.2 | 11.3 | 0.00 | 0.00 | 0.00 | 31 | 1010.7 |
| 20260504200021 | 23 | 250 | 3.2 | 12.9 | 0.00 | 0.00 | 0.00 | 31 | 1011.0 |
| 20260504194528 | 22 | 332 | 3.2 | 19.3 | 0.00 | 0.00 | 0.00 | 34 | 1011.1 |
| 20260504193020 | 23 | 213 | 3.2 | 12.9 | 0.00 | 0.00 | 0.00 | 34 | 1011.3 |
| 20260504191529 | 23 | 157 | 1.6 | 14.5 | 0.00 | 0.00 | 0.00 | 33 | 1011.5 |
| 20260504190014 | 22 | 290 | 6.4 | 22.5 | 0.00 | 0.00 | 0.00 | 33 | 1012.0 |
| 20260504184518 | 22 | 147 | 6.4 | 14.5 | 0.00 | 0.00 | 0.00 | 32 | 1012.0 |
| 20260504183010 | 22 | 275 | 4.8 | 12.9 | 0.00 | 0.00 | 0.00 | 33 | 1012.1 |
| 20260504181513 | 22 | 250 | 6.4 | 14.5 | 0.00 | 0.00 | 0.00 | 36 | 1012.5 |
| 20260504180007 | 22 | 240 | 6.4 | 19.3 | 0.00 | 0.00 | 0.00 | 34 | 1012.7 |
| 20260504174503 | 21 | 285 | 6.4 | 16.1 | 0.00 | 0.00 | 0.00 | 35 | 1012.9 |
| 20260504173002 | 21 | 208 | 6.4 | 16.1 | 0.00 | 0.00 | 0.00 | 36 | 1013.0 |
| 20260504171601 | 21 | 205 | 6.4 | 30.6 | 0.00 | 0.00 | 0.00 | 36 | 1013.1 |
| 20260504081530 | 4 | 175 | 0.0 | 1.6 | 0.00 | 0.00 | 0.00 | 76 | 1016.0 |
| 20260504050008 | 6 | 202 | 0.0 | 1.6 | 0.00 | 0.00 | 0.00 | 66 | 1015.3 |
| 20260504044507 | 6 | 202 | 0.0 | 3.2 | 0.00 | 0.00 | 0.00 | 65 | 1015.2 |
| 20260504043005 | 6 | 202 | 0.0 | 1.6 | 0.00 | 0.00 | 0.00 | 64 | 1015.1 |
| 20260504041504 | 7 | 202 | 0.0 | 3.2 | 0.00 | 0.00 | 0.00 | 63 | 1015.0 |
| 20260504040006 | 7 | 202 | 0.0 | 1.6 | 0.00 | 0.00 | 0.00 | 63 | 1015.0 |
| 20260504034601 | 7 | 202 | 0.0 | 1.6 | 0.00 | 0.00 | 0.00 | 63 | 1014.8 |
| 20260504033102 | 6 | 202 | 1.6 | 4.8 | 0.00 | 0.00 | 0.00 | 64 | 1014.7 |
| 20260504031601 | 6 | 252 | 0.0 | 3.2 | 0.00 | 0.00 | 0.00 | 66 | 1014.6 |
| 20260504030059 | 6 | 252 | 0.0 | 1.6 | 0.00 | 0.00 | 0.00 | 70 | 1014.7 |
| 20260504024557 | 6 | 252 | 0.0 | 1.6 | 0.00 | 0.00 | 0.00 | 71 | 1014.6 |
| 20260504023101 | 6 | 252 | 0.0 | 0.0 | 0.00 | 0.00 | 0.00 | 71 | 1014.5 |
| 20260504021555 | 6 | 252 | 0.0 | 0.0 | 0.00 | 0.00 | 0.00 | 68 | 1014.6 |
| 20260504020055 | 7 | 252 | 0.0 | 0.0 | 0.00 | 0.00 | 0.00 | 66 | 1014.6 |
| 20260504014654 | 7 | 252 | 0.0 | 0.0 | 0.00 | 0.00 | 0.00 | 66 | 1014.5 |
| 20260504013058 | 7 | 252 | 0.0 | 0.0 | 0.00 | 0.00 | 0.00 | 64 | 1014.4 |
| 20260504011552 | 8 | 252 | 0.0 | 0.0 | 0.00 | 0.00 | 0.00 | 61 | 1014.2 |
| 20260504010054 | 8 | 252 | 0.0 | 0.0 | 0.00 | 0.00 | 0.00 | 58 | 1013.9 |
| 20260504004553 | 10 | 252 | 0.0 | 1.6 | 0.00 | 0.00 | 0.00 | 58 | 1013.8 |
| 20260504003101 | 10 | 252 | 0.0 | 0.0 | 0.00 | 0.00 | 0.00 | 52 | 1013.6 |
| 20260504001605 | 11 | 252 | 0.0 | 1.6 | 0.00 | 0.00 | 0.00 | 48 | 1013.3 |
| 20260504000106 | 12 | 259 | 0.0 | 0.0 | 0.00 | 0.00 | 0.00 | 47 | 1013.2 |
| 20260503234548 | 12 | 259 | 0.0 | 3.2 | 0.00 | 0.00 | 0.00 | 43 | 1013.0 |
| 20260503233048 | 13 | 259 | 0.0 | 1.6 | 0.00 | 0.00 | 0.00 | 41 | 1012.8 |
| 20260503231548 | 13 | 261 | 0.0 | 1.6 | 0.00 | 0.00 | 0.00 | 38 | 1012.8 |
| 20260503230055 | 13 | 233 | 1.6 | 9.7 | 0.00 | 0.00 | 0.00 | 37 | 1012.7 |
| 20260503224547 | 13 | 203 | 3.2 | 6.4 | 0.00 | 0.00 | 0.00 | 37 | 1012.7 |
| 20260503223046 | 14 | 270 | 1.6 | 8.0 | 0.00 | 0.00 | 0.00 | 35 | 1012.5 |
| 20260503221552 | 14 | 271 | 3.2 | 12.9 | 0.00 | 0.00 | 0.00 | 36 | 1012.5 |
| 20260503220045 | 14 | 284 | 3.2 | 16.1 | 0.00 | 0.00 | 0.00 | 35 | 1012.6 |